�������l�o���
Date,Time,MP-1(��Sv/h),MP-2(��Sv/h),MP-3(��Sv/h),MP-4(��Sv/h),MP-5(��Sv/h),MP-6(��Sv/h),MP-7(��Sv/h),MP-8(��Sv/h),����,����(m/s),���J
2020/12/26,00:00,0.682,0.977,0.618,1.234,0.866,0.384,0.680,0.639,�k��,5.7,��
2020/12/26,00:10,0.683,0.977,0.618,1.232,0.864,0.386,0.681,0.640,�k��,5.4,��
2020/12/26,00:20,0.683,0.978,0.618,1.233,0.865,0.383,0.681,0.640,�k��,5.7,��
2020/12/26,00:30,0.685,0.976,0.620,1.231,0.865,0.384,0.681,0.640,�k��,6.0,�L
2020/12/26,00:40,0.685,0.979,0.621,1.232,0.864,0.383,0.679,0.639,�k��,6.4,�L
2020/12/26,00:50,0.688,0.980,0.621,1.234,0.866,0.383,0.680,0.640,�k�k��,6.6,�L
2020/12/26,01:00,0.687,0.979,0.621,1.233,0.867,0.383,0.679,0.639,�k��,6.7,�L
2020/12/26,01:10,0.688,0.982,0.622,1.236,0.866,0.383,0.680,0.640,�k��,6.5,�L
2020/12/26,01:20,0.689,0.981,0.624,1.235,0.867,0.384,0.680,0.638,�k��,7.0,�L
2020/12/26,01:30,0.688,0.982,0.622,1.236,0.866,0.385,0.680,0.643,���k��,8.5,�L
2020/12/26,01:40,0.687,0.979,0.625,1.237,0.868,0.384,0.680,0.640,��,7.2,�L
2020/12/26,01:50,0.686,0.979,0.624,1.235,0.868,0.388,0.680,0.637,���k��,7.3,�L
2020/12/26,02:00,0.687,0.979,0.624,1.235,0.869,0.388,0.681,0.640,���k��,6.1,�L
2020/12/26,02:10,0.684,0.976,0.624,1.233,0.869,0.389,0.681,0.640,��,5.1,�L
2020/12/26,02:20,0.686,0.977,0.623,1.234,0.868,0.388,0.680,0.639,���k��,5.9,�L
2020/12/26,02:30,0.683,0.976,0.621,1.235,0.867,0.390,0.680,0.640,��,6.1,�L
2020/12/26,02:40,0.683,0.973,0.622,1.234,0.864,0.389,0.680,0.640,��,6.3,�L
2020/12/26,02:50,0.683,0.974,0.621,1.233,0.864,0.388,0.679,0.639,���k��,6.5,�L
2020/12/26,03:00,0.682,0.974,0.619,1.232,0.864,0.387,0.681,0.640,���k��,6.3,�L
2020/12/26,03:10,0.680,0.973,0.618,1.231,0.865,0.389,0.681,0.640,���k��,3.4,�L
2020/12/26,03:20,0.681,0.971,0.618,1.233,0.867,0.389,0.680,0.640,�k��,3.9,�L
2020/12/26,03:30,0.681,0.972,0.619,1.234,0.866,0.388,0.680,0.641,���k��,4.1,�L
2020/12/26,03:40,0.681,0.972,0.617,1.230,0.866,0.388,0.678,0.639,���k��,4.2,�L
2020/12/26,03:50,0.679,0.972,0.619,1.231,0.865,0.388,0.680,0.640,���k��,2.8,�L
2020/12/26,04:00,0.679,0.970,0.616,1.229,0.862,0.388,0.679,0.638,���k��,3.1,�L
2020/12/26,04:10,0.679,0.971,0.617,1.227,0.862,0.387,0.676,0.640,���k��,3.3,�L
2020/12/26,04:20,0.680,0.971,0.617,1.229,0.862,0.386,0.679,0.640,�k��,3.6,�L
2020/12/26,04:30,0.679,0.970,0.619,1.230,0.864,0.387,0.679,0.639,���k��,4.3,�L
2020/12/26,04:40,0.682,0.971,0.616,1.229,0.862,0.384,0.679,0.638,�k��,4.5,�L
2020/12/26,04:50,0.681,0.971,0.617,1.229,0.860,0.385,0.677,0.639,���k��,4.5,�L
2020/12/26,05:00,0.681,0.972,0.619,1.228,0.861,0.384,0.677,0.639,���k��,5.5,�L
2020/12/26,05:10,0.682,0.969,0.616,1.229,0.861,0.384,0.677,0.638,��,4.2,�L
2020/12/26,05:20,0.679,0.969,0.616,1.227,0.860,0.383,0.677,0.638,���쐼,3.7,�L
2020/12/26,05:30,0.678,0.970,0.614,1.229,0.859,0.384,0.677,0.637,��,4.6,�L
2020/12/26,05:40,0.679,0.970,0.616,1.229,0.858,0.383,0.678,0.638,��,4.5,��
2020/12/26,05:50,0.681,0.968,0.615,1.225,0.857,0.384,0.678,0.639,��,3.8,�L
2020/12/26,06:00,0.678,0.970,0.614,1.228,0.858,0.383,0.678,0.638,���k��,2.9,��
2020/12/26,06:10,0.679,0.970,0.614,1.228,0.859,0.384,0.677,0.637,��,3.8,��
2020/12/26,06:20,0.677,0.968,0.613,1.226,0.859,0.383,0.676,0.638,��,4.5,��
2020/12/26,06:30,0.678,0.970,0.614,1.225,0.857,0.382,0.677,0.638,��,5.0,��
2020/12/26,06:40,0.678,0.966,0.614,1.225,0.859,0.382,0.677,0.638,��,5.2,��
2020/12/26,06:50,0.677,0.968,0.615,1.223,0.857,0.383,0.675,0.636,��,4.7,��
2020/12/26,07:00,0.676,0.968,0.614,1.226,0.857,0.383,0.677,0.638,��,4.4,��
2020/12/26,07:10,0.678,0.967,0.612,1.225,0.858,0.381,0.676,0.638,��,4.2,��
2020/12/26,07:20,0.676,0.967,0.613,1.226,0.857,0.382,0.677,0.637,��,3.3,��
2020/12/26,07:30,0.674,0.968,0.614,1.225,0.858,0.382,0.677,0.637,���쐼,2.8,��
2020/12/26,07:40,0.677,0.967,0.613,1.226,0.857,0.382,0.678,0.637,���쐼,2.6,��
2020/12/26,07:50,0.677,0.969,0.613,1.224,0.857,0.382,0.676,0.637,���쐼,1.2,��
2020/12/26,08:00,0.678,0.970,0.614,1.222,0.856,0.382,0.678,0.639,���쐼,1.5,��
2020/12/26,08:10,0.676,0.966,0.615,1.223,0.857,0.382,0.675,0.639,���쐼,2.0,��
2020/12/26,08:20,0.677,0.965,0.613,1.226,0.855,0.381,0.678,0.638,��,1.7,��
2020/12/26,08:30,0.677,0.968,0.612,1.226,0.856,0.383,0.676,0.637,���쐼,2.0,��
2020/12/26,08:40,0.679,0.965,0.615,1.225,0.856,0.382,0.677,0.636,���쐼,1.9,��
2020/12/26,08:50,0.678,0.969,0.612,1.223,0.856,0.381,0.676,0.639,�쐼,1.4,��
2020/12/26,09:00,0.677,0.968,0.613,1.224,0.858,0.383,0.676,0.638,���쐼,1.7,��
2020/12/26,09:10,0.677,0.969,0.614,1.225,0.856,0.382,0.676,0.637,��,1.2,��
2020/12/26,09:20,0.679,0.966,0.614,1.227,0.858,0.382,0.676,0.639,��,2.3,��
2020/12/26,09:30,0.679,0.967,0.614,1.226,0.857,0.382,0.677,0.637,���k��,5.8,��
2020/12/26,09:40,0.680,0.967,0.615,1.227,0.855,0.382,0.677,0.637,�k��,6.1,��
2020/12/26,09:50,0.679,0.967,0.615,1.225,0.856,0.382,0.678,0.639,�k��,6.0,��
2020/12/26,10:00,0.678,0.966,0.615,1.227,0.858,0.382,0.677,0.637,���k��,5.2,��
2020/12/26,10:10,0.679,0.968,0.613,1.226,0.858,0.381,0.678,0.638,���k��,4.7,��
2020/12/26,10:20,0.680,0.969,0.615,1.226,0.860,0.382,0.679,0.638,���k��,5.6,��
2020/12/26,10:30,0.681,0.971,0.614,1.226,0.858,0.382,0.678,0.637,���k��,4.5,��
2020/12/26,10:40,0.680,0.971,0.615,1.227,0.860,0.382,0.678,0.638,��,4.4,��
2020/12/26,10:50,0.679,0.973,0.615,1.226,0.860,0.382,0.678,0.637,��,4.0,��
2020/12/26,11:00,0.681,0.971,0.614,1.227,0.862,0.382,0.678,0.637,���k��,3.9,��
2020/12/26,11:10,0.679,0.971,0.615,1.225,0.859,0.382,0.679,0.638,���k��,4.4,��
2020/12/26,11:20,0.680,0.969,0.614,1.227,0.860,0.383,0.679,0.639,���k��,2.6,��
2020/12/26,11:30,0.682,0.971,0.613,1.227,0.861,0.383,0.678,0.637,�k��,3.6,��
2020/12/26,11:40,0.680,0.969,0.615,1.230,0.860,0.383,0.679,0.638,���k��,4.6,��
2020/12/26,11:50,0.681,0.969,0.618,1.228,0.861,0.382,0.679,0.637,���k��,4.1,��
2020/12/26,12:00,0.681,0.971,0.616,1.227,0.859,0.383,0.678,0.638,���k��,4.1,��
2020/12/26,12:10,0.682,0.970,0.618,1.228,0.863,0.383,0.679,0.638,���k��,3.5,��
2020/12/26,12:20,0.681,0.972,0.618,1.228,0.863,0.384,0.679,0.638,�k��,4.0,�L
2020/12/26,12:30,0.680,0.973,0.616,1.227,0.863,0.383,0.680,0.637,�k��,3.8,�L
2020/12/26,12:40,0.682,0.971,0.618,1.229,0.863,0.383,0.678,0.638,�k��,3.0,�L
2020/12/26,12:50,0.681,0.972,0.618,1.227,0.862,0.383,0.679,0.638,�k�k��,4.4,�L
2020/12/26,13:00,0.680,0.971,0.618,1.229,0.864,0.383,0.679,0.640,�k�k��,4.9,�L
2020/12/26,13:10,0.683,0.973,0.618,1.229,0.862,0.383,0.678,0.639,�k��,3.7,��
2020/12/26,13:20,0.680,0.974,0.617,1.231,0.862,0.382,0.678,0.638,�k��,4.3,��
2020/12/26,13:30,0.682,0.974,0.618,1.229,0.862,0.383,0.679,0.638,�k��,3.4,��
2020/12/26,13:40,0.682,0.975,0.618,1.228,0.861,0.384,0.679,0.639,�k�k��,3.6,��
2020/12/26,13:50,0.680,0.972,0.617,1.229,0.862,0.383,0.679,0.639,�k��,4.1,��
2020/12/26,14:00,0.681,0.973,0.616,1.231,0.861,0.384,0.680,0.639,�k��,4.4,��
2020/12/26,14:10,0.679,0.973,0.617,1.228,0.864,0.383,0.680,0.639,�k�k��,3.9,��
2020/12/26,14:20,0.681,0.974,0.618,1.227,0.862,0.382,0.680,0.639,�k�k��,5.2,��
2020/12/26,14:30,0.682,0.974,0.616,1.230,0.861,0.383,0.679,0.639,�k�k��,4.0,��
2020/12/26,14:40,0.681,0.975,0.617,1.229,0.863,0.382,0.679,0.638,�k�k��,4.3,��
2020/12/26,14:50,0.680,0.972,0.618,1.229,0.861,0.383,0.678,0.639,�k�k��,5.3,��
2020/12/26,15:00,0.681,0.975,0.617,1.230,0.861,0.384,0.681,0.639,�k�k��,3.9,��
2020/12/26,15:10,0.682,0.974,0.617,1.228,0.861,0.383,0.677,0.640,�k�k��,3.2,��
2020/12/26,15:20,0.681,0.974,0.617,1.228,0.864,0.382,0.680,0.639,�k��,3.4,��
2020/12/26,15:30,0.681,0.976,0.618,1.229,0.862,0.383,0.681,0.637,�k��,3.7,��
2020/12/26,15:40,0.681,0.975,0.617,1.231,0.862,0.383,0.680,0.639,�k��,3.2,��
2020/12/26,15:50,0.680,0.973,0.617,1.231,0.864,0.383,0.679,0.638,�k��,2.8,��
2020/12/26,16:00,0.679,0.973,0.619,1.229,0.861,0.384,0.678,0.638,�k�k��,3.5,��
2020/12/26,16:10,0.680,0.976,0.616,1.228,0.862,0.382,0.680,0.638,�k�k��,3.5,��
2020/12/26,16:20,0.680,0.973,0.617,1.229,0.861,0.383,0.680,0.638,�k��,3.4,��
2020/12/26,16:30,0.679,0.974,0.617,1.228,0.862,0.384,0.679,0.638,�k��,2.6,��
2020/12/26,16:40,0.681,0.973,0.618,1.229,0.860,0.382,0.678,0.637,���k��,3.9,��
2020/12/26,16:50,0.679,0.975,0.616,1.229,0.860,0.381,0.678,0.638,��,4.3,��
2020/12/26,17:00,0.679,0.973,0.616,1.228,0.861,0.384,0.677,0.638,���쐼,4.1,��
2020/12/26,17:10,0.678,0.973,0.615,1.228,0.860,0.383,0.679,0.639,��,4.5,��
2020/12/26,17:20,0.680,0.972,0.615,1.223,0.860,0.383,0.677,0.638,���쐼,4.4,��
2020/12/26,17:30,0.678,0.971,0.616,1.228,0.861,0.383,0.677,0.639,���쐼,4.5,��
2020/12/26,17:40,0.677,0.970,0.616,1.227,0.860,0.382,0.678,0.637,���쐼,3.4,��
2020/12/26,17:50,0.677,0.972,0.616,1.227,0.861,0.382,0.675,0.638,�쐼,3.6,��
2020/12/26,18:00,0.678,0.971,0.615,1.227,0.862,0.381,0.675,0.637,���쐼,3.6,��
2020/12/26,18:10,0.679,0.973,0.617,1.227,0.861,0.382,0.679,0.637,���쐼,3.3,��
2020/12/26,18:20,0.678,0.972,0.617,1.223,0.861,0.380,0.677,0.637,���쐼,2.3,��
2020/12/26,18:30,0.679,0.970,0.616,1.228,0.859,0.382,0.677,0.637,���쐼,0.8,��
2020/12/26,18:40,0.679,0.971,0.618,1.228,0.859,0.381,0.676,0.637,-,CALM,��
2020/12/26,18:50,0.679,0.972,0.617,1.227,0.860,0.382,0.676,0.637,���k��,0.6,��
2020/12/26,19:00,0.677,0.973,0.614,1.227,0.859,0.383,0.677,0.638,���쐼,1.5,��
2020/12/26,19:10,0.678,0.970,0.617,1.228,0.860,0.380,0.677,0.635,���쐼,2.5,��
2020/12/26,19:20,0.679,0.971,0.617,1.227,0.860,0.382,0.676,0.638,��,3.5,��
2020/12/26,19:30,0.678,0.973,0.616,1.224,0.861,0.381,0.677,0.638,��,3.0,��
2020/12/26,19:40,0.677,0.972,0.615,1.226,0.861,0.382,0.675,0.637,���쐼,3.6,��
2020/12/26,19:50,0.679,0.971,0.615,1.227,0.861,0.381,0.676,0.637,���쐼,3.4,��
2020/12/26,20:00,0.679,0.972,0.615,1.229,0.859,0.382,0.677,0.636,���쐼,3.1,��
2020/12/26,20:10,0.677,0.971,0.614,1.228,0.860,0.381,0.677,0.637,���쐼,3.1,��
2020/12/26,20:20,0.677,0.971,0.614,1.224,0.858,0.382,0.675,0.637,���쐼,2.2,��
2020/12/26,20:30,0.678,0.971,0.614,1.226,0.860,0.381,0.675,0.638,��,1.5,��
2020/12/26,20:40,0.677,0.971,0.614,1.225,0.860,0.381,0.678,0.637,���쐼,1.7,��
2020/12/26,20:50,0.676,0.971,0.616,1.226,0.861,0.381,0.675,0.637,���쐼,2.0,��
2020/12/26,21:00,0.679,0.972,0.615,1.226,0.861,0.380,0.675,0.637,�쐼,2.0,��
2020/12/26,21:10,0.679,0.971,0.616,1.228,0.859,0.381,0.675,0.637,��쐼,1.9,��
2020/12/26,21:20,0.678,0.971,0.614,1.226,0.860,0.383,0.677,0.637,���쐼,1.7,��
2020/12/26,21:30,0.678,0.972,0.615,1.226,0.860,0.380,0.677,0.638,���쐼,2.6,��
2020/12/26,21:40,0.678,0.971,0.617,1.225,0.859,0.382,0.677,0.637,���쐼,4.4,��
2020/12/26,21:50,0.677,0.971,0.616,1.227,0.859,0.381,0.677,0.637,���쐼,3.8,��
2020/12/26,22:00,0.679,0.971,0.615,1.229,0.860,0.382,0.677,0.637,���쐼,5.1,��
2020/12/26,22:10,0.679,0.971,0.617,1.228,0.859,0.381,0.676,0.638,���쐼,4.7,��
2020/12/26,22:20,0.678,0.971,0.616,1.226,0.857,0.382,0.675,0.636,���쐼,5.0,��
2020/12/26,22:30,0.681,0.969,0.614,1.225,0.859,0.381,0.677,0.637,��,5.4,��
2020/12/26,22:40,0.679,0.974,0.616,1.225,0.860,0.381,0.675,0.636,���k��,4.3,��
2020/12/26,22:50,0.679,0.971,0.617,1.227,0.860,0.382,0.677,0.637,�k��,4.3,��
2020/12/26,23:00,0.679,0.972,0.616,1.227,0.860,0.380,0.675,0.636,���k��,3.8,��
2020/12/26,23:10,0.678,0.970,0.616,1.226,0.859,0.382,0.675,0.639,��,2.3,��
2020/12/26,23:20,0.681,0.972,0.616,1.224,0.859,0.381,0.676,0.637,���쐼,2.5,��
2020/12/26,23:30,0.678,0.969,0.615,1.227,0.858,0.381,0.674,0.637,���쐼,3.0,��
2020/12/26,23:40,0.680,0.971,0.614,1.227,0.859,0.381,0.676,0.637,���쐼,3.0,��
2020/12/26,23:50,0.677,0.970,0.616,1.227,0.857,0.381,0.675,0.637,���쐼,3.4,��
